Retour au catalogue

SL-12 R/B(2)

ActifHEO
NORAD 26557·ROCKET BODY·🇷🇺 Russia

Lancé Oct 1, 2000 depuis Baikonur Cosmodrome

Loading…

Prochains Passages (prochaines 24 heures)

TLE

FraisSource: Space-Track

Époque: Sep 14, 2026, 09:27 UTC

1 26557U 00059D   26257.39398501 -.00000172  00000-0  00000-0 0  9990
2 26557  15.3765  67.3442 5081413  84.9206 334.9748  1.86636285176930

Suivez SL-12 R/B(2) en temps réel avec AllMySat

Download on the App Store